Wetterdaten: Donnerstag, 19.12.2013
Datum Zeit Temperatur Luftfeuchte Luftdruck Regen Wind Richtung Richtung Taupunkt Windchill Windben
19.12.2013 00:00 -4,7 C 82 % 1017,6 hPa 0,0 l/m 0,0 km/h (0 Bft) N-NW 337 -7,3 C -5,4 C 0,0 km/h (0 Bft)
19.12.2013 00:05 -4,5 C 82 % 1017,6 hPa 0,0 l/m 0,2 km/h (0 Bft) N-NW 337 -7,1 C -5,2 C 1,9 km/h (1 Bft)
19.12.2013 00:10 -3,7 C 82 % 1017,6 hPa 0,0 l/m 0,5 km/h (0 Bft) NW 315 -6,3 C -4,8 C 0,0 km/h (0 Bft)
19.12.2013 00:15 -4,4 C 81 % 1017,6 hPa 0,0 l/m 0,5 km/h (0 Bft) N-NW 337 -7,2 C -4,8 C 0,0 km/h (0 Bft)
19.12.2013 00:20 -4,6 C 81 % 1017,1 hPa 0,0 l/m 0,0 km/h (0 Bft) N-NW 337 -7,4 C -4,9 C 0,0 km/h (0 Bft)
19.12.2013 00:25 -4,8 C 81 % 1017,1 hPa 0,0 l/m 0,0 km/h (0 Bft) N-NW 337 -7,5 C -5,0 C 0,0 km/h (0 Bft)
19.12.2013 00:30 -3,4 C 82 % 1017,1 hPa 0,0 l/m 0,6 km/h (0 Bft) NO 45 -6,0 C -4,8 C 4,8 km/h (1 Bft)
19.12.2013 00:35 -4,1 C 80 % 1017,1 hPa 0,0 l/m 0,6 km/h (0 Bft) NO 45 -7,0 C -4,8 C 0,0 km/h (0 Bft)
19.12.2013 00:40 -4,1 C 81 % 1016,7 hPa 0,0 l/m 0,2 km/h (0 Bft) N 360 -6,9 C -4,9 C 1,9 km/h (1 Bft)
19.12.2013 00:45 -4,7 C 80 % 1016,7 hPa 0,0 l/m 0,2 km/h (0 Bft) N 360 -7,6 C -4,8 C 0,0 km/h (0 Bft)
19.12.2013 00:50 -4,9 C 80 % 1016,7 hPa 0,0 l/m 0,2 km/h (0 Bft) N 360 -7,8 C -5,0 C 0,0 km/h (0 Bft)
19.12.2013 00:55 -4,6 C 80 % 1016,7 hPa 0,0 l/m 0,0 km/h (0 Bft) N 360 -7,5 C -5,1 C 0,0 km/h (0 Bft)
19.12.2013 01:00 -4,8 C 80 % 1016,6 hPa 0,0 l/m 0,0 km/h (0 Bft) N-NO 22 -7,7 C -5,2 C 0,0 km/h (0 Bft)
19.12.2013 01:05 -5,3 C 79 % 1016,6 hPa 0,0 l/m 0,0 km/h (0 Bft) N-NO 22 -8,4 C -5,3 C 0,0 km/h (0 Bft)
19.12.2013 01:10 -5,3 C 79 % 1016,6 hPa 0,0 l/m 0,0 km/h (0 Bft) O-SO 112 -8,4 C -5,4 C 0,0 km/h (0 Bft)
19.12.2013 01:15 -5,4 C 79 % 1016,6 hPa 0,0 l/m 0,0 km/h (0 Bft) O-SO 112 -8,5 C -5,4 C 0,0 km/h (0 Bft)
19.12.2013 01:20 -5,6 C 80 % 1016,7 hPa 0,0 l/m 0,2 km/h (0 Bft) O-SO 112 -8,5 C -5,5 C 0,0 km/h (0 Bft)
19.12.2013 01:25 -5,9 C 80 % 1016,7 hPa 0,0 l/m 0,2 km/h (0 Bft) O-SO 112 -8,8 C -5,7 C 0,0 km/h (0 Bft)
19.12.2013 01:30 -5,9 C 80 % 1016,7 hPa 0,0 l/m 0,0 km/h (0 Bft) O-SO 112 -8,8 C -5,8 C 0,0 km/h (0 Bft)
19.12.2013 01:35 -5,6 C 81 % 1016,7 hPa 0,0 l/m 0,0 km/h (0 Bft) O-SO 112 -8,3 C -5,7 C 0,0 km/h (0 Bft)
19.12.2013 01:40 -5,7 C 81 % 1016,5 hPa 0,0 l/m 0,0 km/h (0 Bft) O-NO 67 -8,4 C -5,7 C 0,0 km/h (0 Bft)
19.12.2013 01:45 -5,7 C 81 % 1016,5 hPa 0,0 l/m 0,0 km/h (0 Bft) O-NO 67 -8,4 C -5,7 C 0,0 km/h (0 Bft)
19.12.2013 01:50 -5,6 C 82 % 1016,5 hPa 0,0 l/m 0,0 km/h (0 Bft) O-NO 67 -8,2 C -5,7 C 0,0 km/h (0 Bft)
19.12.2013 01:55 -5,8 C 82 % 1016,5 hPa 0,0 l/m 0,0 km/h (0 Bft) O-SO 112 -8,4 C -5,6 C 0,0 km/h (0 Bft)
19.12.2013 02:00 -5,9 C 82 % 1016,1 hPa 0,0 l/m 0,0 km/h (0 Bft) NO 45 -8,5 C -5,6 C 0,0 km/h (0 Bft)
19.12.2013 02:05 -5,8 C 82 % 1016,1 hPa 0,0 l/m 0,0 km/h (0 Bft) O-NO 67 -8,4 C -5,7 C 0,0 km/h (0 Bft)
19.12.2013 02:10 -5,6 C 83 % 1016,1 hPa 0,0 l/m 0,2 km/h (0 Bft) N-NO 22 -8,0 C -5,6 C 2,3 km/h (1 Bft)
19.12.2013 02:15 -5,6 C 83 % 1016,1 hPa 0,0 l/m 0,2 km/h (0 Bft) N-NO 22 -8,0 C -5,6 C 0,0 km/h (0 Bft)
19.12.2013 02:20 -5,5 C 83 % 1016,0 hPa 0,0 l/m 0,2 km/h (0 Bft) NO 45 -7,9 C -5,5 C 0,0 km/h (0 Bft)
19.12.2013 02:25 -5,7 C 83 % 1016,0 hPa 0,0 l/m 0,2 km/h (0 Bft) N-NO 22 -8,1 C -5,5 C 0,0 km/h (0 Bft)
19.12.2013 02:30 -5,1 C 83 % 1016,0 hPa 0,0 l/m 0,0 km/h (0 Bft) NO 45 -7,5 C -5,5 C 0,0 km/h (0 Bft)
19.12.2013 02:35 -5,3 C 83 % 1016,0 hPa 0,0 l/m 0,0 km/h (0 Bft) NO 45 -7,7 C -5,5 C 0,0 km/h (0 Bft)
19.12.2013 02:40 -5,4 C 83 % 1015,7 hPa 0,0 l/m 0,0 km/h (0 Bft) O 90 -7,8 C -5,4 C 0,0 km/h (0 Bft)
19.12.2013 02:45 -5,2 C 83 % 1015,7 hPa 0,0 l/m 0,0 km/h (0 Bft) N-NO 22 -7,6 C -5,5 C 0,0 km/h (0 Bft)
19.12.2013 02:50 -5,7 C 83 % 1015,7 hPa 0,0 l/m 0,0 km/h (0 Bft) NO 45 -8,1 C -5,5 C 0,0 km/h (0 Bft)
19.12.2013 02:55 -5,6 C 83 % 1015,7 hPa 0,0 l/m 0,0 km/h (0 Bft) NO 45 -8,0 C -5,6 C 0,0 km/h (0 Bft)
19.12.2013 03:00 -5,6 C 83 % 1015,6 hPa 0,0 l/m 0,0 km/h (0 Bft) N-NO 22 -8,0 C -5,6 C 0,0 km/h (0 Bft)
19.12.2013 03:05 -5,6 C 83 % 1015,6 hPa 0,0 l/m 0,0 km/h (0 Bft) NO 45 -8,0 C -5,6 C 0,0 km/h (0 Bft)
19.12.2013 03:10 -5,3 C 83 % 1015,6 hPa 0,0 l/m 0,0 km/h (0 Bft) N-NO 22 -7,7 C -5,5 C 0,0 km/h (0 Bft)
19.12.2013 03:15 -5,5 C 83 % 1015,6 hPa 0,0 l/m 0,0 km/h (0 Bft) N 360 -7,9 C -5,4 C 0,0 km/h (0 Bft)
19.12.2013 03:20 -5,5 C 83 % 1014,9 hPa 0,0 l/m 0,0 km/h (0 Bft) NO 45 -7,9 C -5,4 C 0,0 km/h (0 Bft)
19.12.2013 03:25 -5,6 C 83 % 1014,9 hPa 0,0 l/m 0,0 km/h (0 Bft) N 360 -8,0 C -5,3 C 0,0 km/h (0 Bft)
19.12.2013 03:30 -6,1 C 83 % 1014,9 hPa 0,0 l/m 0,0 km/h (0 Bft) N-NO 22 -8,5 C -5,4 C 0,0 km/h (0 Bft)
19.12.2013 03:35 -5,9 C 83 % 1014,9 hPa 0,0 l/m 0,0 km/h (0 Bft) N 360 -8,3 C -5,4 C 0,0 km/h (0 Bft)
19.12.2013 03:40 -5,3 C 83 % 1014,6 hPa 0,0 l/m 0,0 km/h (0 Bft) O-NO 67 -7,7 C -5,5 C 0,0 km/h (0 Bft)
19.12.2013 03:45 -5,2 C 83 % 1014,6 hPa 0,0 l/m 0,0 km/h (0 Bft) O 90 -7,6 C -5,4 C 0,0 km/h (0 Bft)
19.12.2013 03:50 -5,3 C 83 % 1014,6 hPa 0,0 l/m 0,0 km/h (0 Bft) O-NO 67 -7,7 C -5,2 C 0,0 km/h (0 Bft)
19.12.2013 03:55 -5,4 C 83 % 1014,6 hPa 0,0 l/m 0,0 km/h (0 Bft) NO 45 -7,8 C -5,3 C 0,0 km/h (0 Bft)
19.12.2013 04:00 -5,4 C 83 % 1014,2 hPa 0,0 l/m 0,0 km/h (0 Bft) O-NO 67 -7,8 C -5,2 C 0,0 km/h (0 Bft)
19.12.2013 04:05 -5,4 C 83 % 1014,2 hPa 0,0 l/m 0,0 km/h (0 Bft) O 90 -7,8 C -5,2 C 0,0 km/h (0 Bft)
19.12.2013 04:10 -5,2 C 83 % 1014,2 hPa 0,0 l/m 0,0 km/h (0 Bft) O 90 -7,6 C -5,1 C 0,0 km/h (0 Bft)
19.12.2013 04:15 -5,3 C 83 % 1014,2 hPa 0,0 l/m 0,0 km/h (0 Bft) O 90 -7,7 C -5,1 C 0,0 km/h (0 Bft)
19.12.2013 04:20 -5,0 C 83 % 1014,2 hPa 0,0 l/m 0,0 km/h (0 Bft) O 90 -7,4 C -5,0 C 0,0 km/h (0 Bft)
19.12.2013 04:25 -4,5 C 83 % 1014,2 hPa 0,0 l/m 0,0 km/h (0 Bft) O 90 -6,9 C -4,8 C 0,0 km/h (0 Bft)
19.12.2013 04:30 -4,7 C 82 % 1014,2 hPa 0,0 l/m 0,0 km/h (0 Bft) NO 45 -7,3 C -4,7 C 0,0 km/h (0 Bft)
19.12.2013 04:35 -4,9 C 82 % 1014,2 hPa 0,0 l/m 0,0 km/h (0 Bft) NO 45 -7,5 C -4,8 C 0,0 km/h (0 Bft)
19.12.2013 04:40 -4,9 C 82 % 1013,8 hPa 0,0 l/m 0,0 km/h (0 Bft) O 90 -7,5 C -4,8 C 0,0 km/h (0 Bft)
19.12.2013 04:43 -4,8 C 82 % 1013,8 hPa 0,0 l/m 0,0 km/h (0 Bft) O 90 -7,4 C -4,9 C 0,0 km/h (0 Bft)
19.12.2013 04:45 -4,8 C 82 % 1013,8 hPa 0,0 l/m 0,0 km/h (0 Bft) O 90 -7,4 C -4,9 C 0,0 km/h (0 Bft)
19.12.2013 04:50 -5,0 C 81 % 1013,8 hPa 0,0 l/m 0,0 km/h (0 Bft) O 90 -7,7 C -5,0 C 0,0 km/h (0 Bft)
19.12.2013 04:55 -5,0 C 81 % 1013,8 hPa 0,0 l/m 0,0 km/h (0 Bft) NO 45 -7,7 C -5,1 C 0,0 km/h (0 Bft)
19.12.2013 05:00 -4,7 C 82 % 1013,5 hPa 0,0 l/m 0,0 km/h (0 Bft) NO 45 -7,3 C -4,9 C 0,0 km/h (0 Bft)
19.12.2013 05:05 -5,0 C 81 % 1013,5 hPa 0,0 l/m 0,0 km/h (0 Bft) NO 45 -7,7 C -4,8 C 0,0 km/h (0 Bft)
19.12.2013 05:10 -5,0 C 81 % 1013,5 hPa 0,0 l/m 0,0 km/h (0 Bft) NO 45 -7,7 C -4,8 C 0,0 km/h (0 Bft)
19.12.2013 05:15 -4,8 C 81 % 1013,5 hPa 0,0 l/m 0,0 km/h (0 Bft) N 360 -7,5 C -4,8 C 0,0 km/h (0 Bft)
19.12.2013 05:20 -4,7 C 81 % 1013,2 hPa 0,0 l/m 0,0 km/h (0 Bft) O 90 -7,4 C -4,8 C 0,0 km/h (0 Bft)
19.12.2013 05:25 -4,7 C 81 % 1013,2 hPa 0,0 l/m 0,0 km/h (0 Bft) O 90 -7,4 C -4,8 C 0,0 km/h (0 Bft)
19.12.2013 05:30 -4,7 C 81 % 1013,2 hPa 0,0 l/m 0,0 km/h (0 Bft) O 90 -7,4 C -4,8 C 0,0 km/h (0 Bft)
19.12.2013 05:35 -4,8 C 81 % 1013,2 hPa 0,0 l/m 0,0 km/h (0 Bft) O 90 -7,5 C -4,8 C 0,0 km/h (0 Bft)
19.12.2013 05:40 -4,8 C 81 % 1013,1 hPa 0,0 l/m 0,0 km/h (0 Bft) NO 45 -7,5 C -4,8 C 0,0 km/h (0 Bft)
19.12.2013 05:45 -4,5 C 81 % 1013,1 hPa 0,0 l/m 0,0 km/h (0 Bft) NO 45 -7,3 C -4,7 C 0,0 km/h (0 Bft)
19.12.2013 05:50 -4,5 C 81 % 1013,1 hPa 0,0 l/m 0,0 km/h (0 Bft) NO 45 -7,3 C -4,6 C 0,0 km/h (0 Bft)
19.12.2013 05:55 -4,5 C 81 % 1013,1 hPa 0,0 l/m 0,0 km/h (0 Bft) NO 45 -7,3 C -4,5 C 0,0 km/h (0 Bft)
19.12.2013 06:00 -4,5 C 81 % 1013,2 hPa 0,0 l/m 0,0 km/h (0 Bft) N-NO 22 -7,3 C -4,4 C 0,0 km/h (0 Bft)
19.12.2013 06:05 -4,6 C 81 % 1013,2 hPa 0,0 l/m 0,0 km/h (0 Bft) N-NO 22 -7,4 C -4,4 C 0,0 km/h (0 Bft)
19.12.2013 06:10 -4,7 C 81 % 1013,2 hPa 0,0 l/m 0,0 km/h (0 Bft) N-NO 22 -7,4 C -4,4 C 0,0 km/h (0 Bft)
19.12.2013 06:15 -4,7 C 81 % 1013,2 hPa 0,0 l/m 0,0 km/h (0 Bft) N-NO 22 -7,4 C -4,5 C 0,0 km/h (0 Bft)
19.12.2013 06:20 -4,8 C 81 % 1012,8 hPa 0,0 l/m 0,0 km/h (0 Bft) N-NO 22 -7,5 C -4,5 C 0,0 km/h (0 Bft)
19.12.2013 06:25 -4,4 C 81 % 1012,8 hPa 0,0 l/m 0,0 km/h (0 Bft) O 90 -7,2 C -4,5 C 0,0 km/h (0 Bft)
19.12.2013 06:30 -4,1 C 81 % 1012,8 hPa 0,0 l/m 0,0 km/h (0 Bft) O 90 -6,9 C -4,3 C 0,0 km/h (0 Bft)
19.12.2013 06:35 -4,3 C 81 % 1012,8 hPa 0,0 l/m 0,0 km/h (0 Bft) O 90 -7,1 C -4,2 C 0,0 km/h (0 Bft)
19.12.2013 06:40 -4,2 C 81 % 1012,8 hPa 0,0 l/m 0,0 km/h (0 Bft) O 90 -7,0 C -4,3 C 0,0 km/h (0 Bft)
19.12.2013 06:45 -4,6 C 80 % 1012,8 hPa 0,0 l/m 0,0 km/h (0 Bft) O 90 -7,5 C -4,3 C 0,0 km/h (0 Bft)
19.12.2013 06:50 -4,2 C 80 % 1012,8 hPa 0,0 l/m 0,0 km/h (0 Bft) O 90 -7,1 C -4,5 C 0,0 km/h (0 Bft)
19.12.2013 06:55 -4,6 C 80 % 1012,8 hPa 0,0 l/m 0,0 km/h (0 Bft) O 90 -7,5 C -4,5 C 0,0 km/h (0 Bft)
19.12.2013 07:00 -4,7 C 80 % 1013,1 hPa 0,0 l/m 0,0 km/h (0 Bft) N 360 -7,6 C -4,7 C 0,0 km/h (0 Bft)
19.12.2013 07:05 -4,9 C 80 % 1013,1 hPa 0,0 l/m 0,0 km/h (0 Bft) N 360 -7,8 C -4,8 C 0,0 km/h (0 Bft)
19.12.2013 07:10 -4,1 C 81 % 1013,1 hPa 0,0 l/m 0,0 km/h (0 Bft) O 90 -6,9 C -4,7 C 0,0 km/h (0 Bft)
19.12.2013 07:15 -4,1 C 81 % 1013,1 hPa 0,0 l/m 0,0 km/h (0 Bft) O 90 -6,9 C -4,6 C 0,0 km/h (0 Bft)
19.12.2013 07:20 -4,6 C 81 % 1012,7 hPa 0,0 l/m 0,0 km/h (0 Bft) N 360 -7,4 C -4,7 C 0,0 km/h (0 Bft)
19.12.2013 07:25 -4,8 C 80 % 1012,7 hPa 0,0 l/m 0,0 km/h (0 Bft) N-NO 22 -7,7 C -4,7 C 0,0 km/h (0 Bft)
19.12.2013 07:30 -4,4 C 81 % 1012,7 hPa 0,0 l/m 0,0 km/h (0 Bft) O-SO 112 -7,2 C -4,7 C 0,0 km/h (0 Bft)
19.12.2013 07:35 -4,4 C 81 % 1012,7 hPa 0,0 l/m 0,0 km/h (0 Bft) O-SO 112 -7,2 C -4,5 C 0,0 km/h (0 Bft)
19.12.2013 07:40 -4,6 C 81 % 1012,9 hPa 0,0 l/m 0,0 km/h (0 Bft) N-NO 22 -7,4 C -4,4 C 0,0 km/h (0 Bft)
19.12.2013 07:45 -4,2 C 82 % 1012,9 hPa 0,0 l/m 0,0 km/h (0 Bft) N-NO 22 -6,8 C -4,3 C 0,0 km/h (0 Bft)
19.12.2013 07:50 -4,2 C 82 % 1012,9 hPa 0,0 l/m 0,0 km/h (0 Bft) N-NO 22 -6,8 C -4,0 C 0,0 km/h (0 Bft)
19.12.2013 07:55 -4,1 C 82 % 1012,9 hPa 0,0 l/m 0,0 km/h (0 Bft) N-NO 22 -6,7 C -4,0 C 0,0 km/h (0 Bft)
19.12.2013 08:00 -4,0 C 82 % 1012,9 hPa 0,0 l/m 0,0 km/h (0 Bft) N-NO 22 -6,6 C -3,9 C 0,0 km/h (0 Bft)
19.12.2013 08:05 -4,0 C 82 % 1012,9 hPa 0,0 l/m 0,0 km/h (0 Bft) N-NO 22 -6,6 C -3,9 C 0,0 km/h (0 Bft)
19.12.2013 08:10 -4,0 C 82 % 1012,9 hPa 0,0 l/m 0,0 km/h (0 Bft) O-SO 112 -6,6 C -3,8 C 0,0 km/h (0 Bft)
19.12.2013 08:15 -3,6 C 82 % 1012,9 hPa 0,0 l/m 0,0 km/h (0 Bft) N-NO 22 -6,2 C -3,7 C 0,0 km/h (0 Bft)
19.12.2013 08:20 -3,6 C 82 % 1013,1 hPa 0,0 l/m 0,0 km/h (0 Bft) NO 45 -6,2 C -3,5 C 0,0 km/h (0 Bft)
19.12.2013 08:25 -3,2 C 82 % 1013,1 hPa 0,0 l/m 0,0 km/h (0 Bft) N-NO 22 -5,8 C -3,0 C 0,0 km/h (0 Bft)
19.12.2013 08:30 -3,2 C 82 % 1013,1 hPa 0,0 l/m 0,0 km/h (0 Bft) NO 45 -5,8 C -2,6 C 0,0 km/h (0 Bft)
19.12.2013 08:35 -2,8 C 82 % 1013,1 hPa 0,0 l/m 0,0 km/h (0 Bft) N-NO 22 -5,4 C -2,6 C 0,0 km/h (0 Bft)
19.12.2013 08:40 -2,8 C 81 % 1013,2 hPa 0,0 l/m 0,0 km/h (0 Bft) NO 45 -5,6 C -2,4 C 0,0 km/h (0 Bft)
19.12.2013 08:45 -2,7 C 81 % 1013,2 hPa 0,0 l/m 0,0 km/h (0 Bft) N 360 -5,5 C -2,3 C 0,0 km/h (0 Bft)
19.12.2013 08:50 -2,5 C 81 % 1013,2 hPa 0,0 l/m 0,0 km/h (0 Bft) N-NO 22 -5,3 C -2,2 C 0,0 km/h (0 Bft)
19.12.2013 08:55 -2,4 C 80 % 1013,2 hPa 0,0 l/m 0,0 km/h (0 Bft) N 360 -5,4 C -2,0 C 0,0 km/h (0 Bft)
19.12.2013 09:00 -2,2 C 80 % 1013,2 hPa 0,0 l/m 0,0 km/h (0 Bft) N-NO 22 -5,2 C -1,7 C 0,0 km/h (0 Bft)
19.12.2013 09:05 -1,9 C 80 % 1013,2 hPa 0,0 l/m 0,0 km/h (0 Bft) N 360 -4,9 C -1,6 C 0,0 km/h (0 Bft)
19.12.2013 09:10 -1,9 C 80 % 1013,2 hPa 0,0 l/m 0,0 km/h (0 Bft) NO 45 -4,9 C -1,3 C 0,0 km/h (0 Bft)
19.12.2013 09:15 -1,7 C 80 % 1013,2 hPa 0,0 l/m 0,0 km/h (0 Bft) NO 45 -4,7 C -1,2 C 0,0 km/h (0 Bft)
19.12.2013 09:20 -1,6 C 79 % 1013,2 hPa 0,0 l/m 0,0 km/h (0 Bft) N 360 -4,8 C -0,9 C 0,0 km/h (0 Bft)
19.12.2013 09:25 -1,5 C 79 % 1013,2 hPa 0,0 l/m 0,0 km/h (0 Bft) N 360 -4,7 C -0,8 C 0,0 km/h (0 Bft)
19.12.2013 09:30 -1,1 C 78 % 1013,2 hPa 0,0 l/m 0,0 km/h (0 Bft) N 360 -4,4 C -0,6 C 0,0 km/h (0 Bft)
19.12.2013 09:35 -0,9 C 78 % 1013,2 hPa 0,0 l/m 0,0 km/h (0 Bft) NO 45 -4,2 C -0,4 C 0,0 km/h (0 Bft)
19.12.2013 09:40 -0,4 C 78 % 1013,8 hPa 0,0 l/m 0,0 km/h (0 Bft) N-NO 22 -3,8 C -0,1 C 0,0 km/h (0 Bft)
19.12.2013 09:45 -0,2 C 78 % 1013,8 hPa 0,0 l/m 0,0 km/h (0 Bft) O-NO 67 -3,6 C 0,1 C 0,0 km/h (0 Bft)
19.12.2013 09:50 -0,2 C 77 % 1013,8 hPa 0,0 l/m 0,0 km/h (0 Bft) NO 45 -3,7 C 0,4 C 0,0 km/h (0 Bft)
19.12.2013 09:55 -0,1 C 77 % 1013,8 hPa 0,0 l/m 0,0 km/h (0 Bft) N 360 -3,6 C 0,4 C 0,0 km/h (0 Bft)
19.12.2013 10:00 0,1 C 76 % 1013,8 hPa 0,0 l/m 0,0 km/h (0 Bft) NO 45 -3,6 C 0,6 C 0,0 km/h (0 Bft)
19.12.2013 10:05 0,5 C 77 % 1013,8 hPa 0,0 l/m 0,0 km/h (0 Bft) O-NO 67 -3,1 C 0,9 C 0,0 km/h (0 Bft)
19.12.2013 10:10 0,3 C 75 % 1013,8 hPa 0,0 l/m 0,0 km/h (0 Bft) NO 45 -3,6 C 1,2 C 0,0 km/h (0 Bft)
19.12.2013 10:15 0,3 C 75 % 1013,8 hPa 0,0 l/m 0,2 km/h (0 Bft) N-NO 22 -3,6 C 1,2 C 0,0 km/h (0 Bft)
19.12.2013 10:20 0,7 C 75 % 1013,9 hPa 0,0 l/m 0,2 km/h (0 Bft) N-NO 22 -3,2 C 1,5 C 0,0 km/h (0 Bft)
19.12.2013 10:25 0,7 C 74 % 1013,9 hPa 0,0 l/m 0,0 km/h (0 Bft) N 360 -3,4 C 1,7 C 0,0 km/h (0 Bft)
19.12.2013 10:30 1,3 C 74 % 1013,9 hPa 0,0 l/m 0,0 km/h (0 Bft) O 90 -2,8 C 2,0 C 0,0 km/h (0 Bft)
19.12.2013 10:35 1,4 C 74 % 1013,9 hPa 0,0 l/m 0,2 km/h (0 Bft) O 90 -2,7 C 2,2 C 0,0 km/h (0 Bft)
19.12.2013 10:40 1,4 C 72 % 1014,2 hPa 0,0 l/m 0,2 km/h (0 Bft) O-NO 67 -3,1 C 2,4 C 0,0 km/h (0 Bft)
19.12.2013 10:43 1,7 C 72 % 1014,2 hPa 0,0 l/m 0,0 km/h (0 Bft) O-NO 67 -2,8 C 2,6 C 0,0 km/h (0 Bft)
19.12.2013 10:45 1,7 C 72 % 1014,2 hPa 0,0 l/m 0,0 km/h (0 Bft) O-NO 67 -2,8 C 2,6 C 0,0 km/h (0 Bft)
19.12.2013 10:50 2,2 C 72 % 1014,2 hPa 0,0 l/m 0,0 km/h (0 Bft) O-NO 67 -2,3 C 3,1 C 0,0 km/h (0 Bft)
19.12.2013 10:55 2,7 C 72 % 1014,2 hPa 0,0 l/m 0,5 km/h (0 Bft) O 90 -1,8 C 3,4 C 0,0 km/h (0 Bft)
19.12.2013 11:00 2,1 C 67 % 1014,6 hPa 0,0 l/m 0,5 km/h (0 Bft) N 360 -3,4 C 3,6 C 0,0 km/h (0 Bft)
19.12.2013 11:05 2,4 C 68 % 1014,6 hPa 0,0 l/m 0,2 km/h (0 Bft) N 360 -2,9 C 3,7 C 0,0 km/h (0 Bft)
19.12.2013 11:10 2,9 C 69 % 1014,6 hPa 0,0 l/m 0,0 km/h (0 Bft) O-NO 67 -2,2 C 4,2 C 0,0 km/h (0 Bft)
19.12.2013 11:15 3,2 C 69 % 1014,6 hPa 0,0 l/m 0,0 km/h (0 Bft) O-NO 67 -1,9 C 4,5 C 0,0 km/h (0 Bft)
19.12.2013 11:20 3,8 C 66 % 1015,1 hPa 0,0 l/m 1,8 km/h (1 Bft) S-SO 157 -2,0 C 4,9 C 10,5 km/h (2 Bft)
19.12.2013 11:25 4,6 C 59 % 1015,1 hPa 0,0 l/m 4,0 km/h (1 Bft) S 180 -2,7 C 4,9 C 6,0 km/h (2 Bft)
19.12.2013 11:30 4,9 C 58 % 1015,1 hPa 0,0 l/m 6,1 km/h (2 Bft) O-SO 112 -2,7 C 4,5 C 11,3 km/h (2 Bft)
19.12.2013 11:35 5,0 C 57 % 1015,1 hPa 0,0 l/m 5,5 km/h (1 Bft) S-SW 202 -2,8 C 4,9 C 5,0 km/h (1 Bft)
19.12.2013 11:40 4,7 C 56 % 1015,2 hPa 0,0 l/m 3,9 km/h (1 Bft) S-SW 202 -3,3 C 5,6 C 3,7 km/h (1 Bft)
19.12.2013 11:45 4,7 C 56 % 1015,2 hPa 0,0 l/m 2,9 km/h (1 Bft) S-SW 202 -3,3 C 5,9 C 3,2 km/h (1 Bft)
19.12.2013 11:50 4,7 C 57 % 1015,2 hPa 0,0 l/m 1,8 km/h (1 Bft) N-NO 22 -3,1 C 5,9 C 0,0 km/h (0 Bft)
19.12.2013 11:55 4,8 C 57 % 1015,2 hPa 0,0 l/m 1,9 km/h (1 Bft) NO 45 -3,0 C 5,9 C 2,6 km/h (1 Bft)
19.12.2013 12:00 5,1 C 55 % 1015,2 hPa 0,0 l/m 2,1 km/h (1 Bft) N-NO 22 -3,2 C 5,9 C 2,6 km/h (1 Bft)
19.12.2013 12:05 5,3 C 56 % 1015,2 hPa 0,0 l/m 2,1 km/h (1 Bft) N-NO 22 -2,8 C 6,0 C 1,6 km/h (1 Bft)
19.12.2013 12:10 5,6 C 56 % 1015,2 hPa 0,0 l/m 1,1 km/h (1 Bft) N-NO 22 -2,5 C 6,3 C 1,9 km/h (1 Bft)
19.12.2013 12:15 5,5 C 57 % 1015,2 hPa 0,0 l/m 0,5 km/h (0 Bft) N-NO 22 -2,3 C 6,5 C 0,0 km/h (0 Bft)
19.12.2013 12:20 5,0 C 58 % 1015,2 hPa 0,0 l/m 0,2 km/h (0 Bft) N-NO 22 -2,6 C 6,3 C 0,0 km/h (0 Bft)
19.12.2013 12:25 5,1 C 58 % 1015,2 hPa 0,0 l/m 0,8 km/h (0 Bft) NO 45 -2,5 C 6,2 C 3,7 km/h (1 Bft)
19.12.2013 12:30 5,7 C 56 % 1015,2 hPa 0,0 l/m 0,8 km/h (0 Bft) NO 45 -2,4 C 6,2 C 3,7 km/h (1 Bft)
19.12.2013 12:35 5,1 C 57 % 1015,2 hPa 0,0 l/m 0,8 km/h (0 Bft) NO 45 -2,7 C 6,2 C 3,7 km/h (1 Bft)
19.12.2013 12:40 5,2 C 58 % 1015,4 hPa 0,0 l/m 1,0 km/h (0 Bft) N 360 -2,4 C 6,1 C 0,0 km/h (0 Bft)
19.12.2013 12:45 5,3 C 58 % 1015,4 hPa 0,0 l/m 1,3 km/h (1 Bft) NO 45 -2,3 C 6,1 C 5,8 km/h (2 Bft)
19.12.2013 12:50 5,5 C 58 % 1015,4 hPa 0,0 l/m 1,1 km/h (1 Bft) NO 45 -2,1 C 6,3 C 0,0 km/h (0 Bft)
19.12.2013 12:55 5,7 C 58 % 1015,4 hPa 0,0 l/m 0,2 km/h (0 Bft) NO 45 -1,9 C 6,6 C 0,0 km/h (0 Bft)
19.12.2013 13:00 5,7 C 58 % 1015,3 hPa 0,0 l/m 0,0 km/h (0 Bft) NO 45 -1,9 C 6,9 C 0,0 km/h (0 Bft)
19.12.2013 13:05 5,5 C 58 % 1015,3 hPa 0,0 l/m 0,5 km/h (0 Bft) O-NO 67 -2,1 C 6,9 C 2,7 km/h (1 Bft)
19.12.2013 13:10 5,8 C 58 % 1015,3 hPa 0,0 l/m 1,0 km/h (0 Bft) S-SO 157 -1,8 C 6,9 C 0,0 km/h (0 Bft)
19.12.2013 13:15 6,0 C 56 % 1015,3 hPa 0,0 l/m 1,0 km/h (0 Bft) S-SO 157 -2,1 C 7,1 C 0,0 km/h (0 Bft)
19.12.2013 13:20 6,2 C 56 % 1015,1 hPa 0,0 l/m 0,5 km/h (0 Bft) O-NO 67 -1,9 C 7,2 C 0,0 km/h (0 Bft)
19.12.2013 13:25 6,5 C 54 % 1015,1 hPa 0,0 l/m 0,8 km/h (0 Bft) O-SO 112 -2,1 C 7,5 C 3,9 km/h (1 Bft)
19.12.2013 13:30 6,7 C 52 % 1015,1 hPa 0,0 l/m 2,7 km/h (1 Bft) O-SO 112 -2,4 C 7,6 C 3,9 km/h (1 Bft)
19.12.2013 13:35 6,6 C 51 % 1015,1 hPa 0,0 l/m 3,2 km/h (1 Bft) O-SO 112 -2,8 C 7,7 C 2,6 km/h (1 Bft)
19.12.2013 13:40 6,6 C 50 % 1015,1 hPa 0,0 l/m 2,1 km/h (1 Bft) O-SO 112 -3,1 C 7,8 C 0,0 km/h (0 Bft)
19.12.2013 13:45 6,5 C 50 % 1015,1 hPa 0,0 l/m 2,6 km/h (1 Bft) O-SO 112 -3,2 C 7,7 C 4,2 km/h (1 Bft)
19.12.2013 13:50 6,5 C 50 % 1015,1 hPa 0,0 l/m 1,9 km/h (1 Bft) SO 135 -3,2 C 7,5 C 2,4 km/h (1 Bft)
19.12.2013 13:55 6,4 C 50 % 1015,1 hPa 0,0 l/m 1,9 km/h (1 Bft) SO 135 -3,2 C 7,5 C 3,2 km/h (1 Bft)
19.12.2013 14:00 6,3 C 50 % 1015,1 hPa 0,0 l/m 2,4 km/h (1 Bft) SO 135 -3,3 C 7,5 C 3,9 km/h (1 Bft)
19.12.2013 14:05 6,3 C 50 % 1015,1 hPa 0,0 l/m 2,7 km/h (1 Bft) O-SO 112 -3,3 C 7,4 C 5,0 km/h (1 Bft)
19.12.2013 14:10 6,6 C 50 % 1015,1 hPa 0,0 l/m 2,9 km/h (1 Bft) O-SO 112 -3,1 C 7,4 C 4,8 km/h (1 Bft)
19.12.2013 14:15 6,7 C 50 % 1015,1 hPa 0,0 l/m 3,4 km/h (1 Bft) O-SO 112 -3,0 C 7,5 C 6,1 km/h (2 Bft)
19.12.2013 14:20 6,5 C 50 % 1015,1 hPa 0,0 l/m 2,9 km/h (1 Bft) O-SO 112 -3,2 C 7,7 C 0,0 km/h (0 Bft)
19.12.2013 14:25 6,1 C 52 % 1015,1 hPa 0,0 l/m 2,3 km/h (1 Bft) O-SO 112 -3,0 C 7,5 C 0,0 km/h (0 Bft)
19.12.2013 14:30 5,6 C 55 % 1015,1 hPa 0,0 l/m 0,5 km/h (0 Bft) O-SO 112 -2,7 C 7,2 C 0,0 km/h (0 Bft)
19.12.2013 14:35 5,6 C 56 % 1015,1 hPa 0,0 l/m 0,2 km/h (0 Bft) O 90 -2,5 C 7,0 C 3,2 km/h (1 Bft)
19.12.2013 14:40 5,5 C 57 % 1015,1 hPa 0,0 l/m 1,3 km/h (1 Bft) O-NO 67 -2,3 C 6,5 C 0,0 km/h (0 Bft)
19.12.2013 14:45 5,2 C 57 % 1015,1 hPa 0,0 l/m 1,8 km/h (1 Bft) O-NO 67 -2,6 C 6,5 C 3,9 km/h (1 Bft)
19.12.2013 14:50 5,1 C 58 % 1015,1 hPa 0,0 l/m 0,8 km/h (0 Bft) O 90 -2,5 C 6,3 C 0,0 km/h (0 Bft)
19.12.2013 14:55 5,0 C 58 % 1015,1 hPa 0,0 l/m 0,5 km/h (0 Bft) O 90 -2,6 C 6,3 C 0,0 km/h (0 Bft)
19.12.2013 15:00 4,8 C 58 % 1014,8 hPa 0,0 l/m 0,0 km/h (0 Bft) O 90 -2,7 C 6,0 C 2,1 km/h (1 Bft)
19.12.2013 15:05 4,9 C 59 % 1014,8 hPa 0,0 l/m 1,6 km/h (1 Bft) O-NO 67 -2,4 C 5,7 C 5,0 km/h (1 Bft)
19.12.2013 15:10 4,9 C 58 % 1014,8 hPa 0,0 l/m 2,1 km/h (1 Bft) NO 45 -2,7 C 5,6 C 0,0 km/h (0 Bft)
19.12.2013 15:15 4,4 C 59 % 1014,8 hPa 0,0 l/m 1,0 km/h (0 Bft) NO 45 -2,9 C 5,4 C 0,0 km/h (0 Bft)
19.12.2013 15:20 4,2 C 59 % 1014,8 hPa 0,0 l/m 0,2 km/h (0 Bft) NO 45 -3,1 C 5,1 C 1,8 km/h (1 Bft)
19.12.2013 15:25 4,6 C 59 % 1014,8 hPa 0,0 l/m 1,1 km/h (1 Bft) O-NO 67 -2,7 C 5,0 C 2,4 km/h (1 Bft)
19.12.2013 15:30 3,9 C 59 % 1014,8 hPa 0,0 l/m 1,1 km/h (1 Bft) O-NO 67 -3,4 C 4,7 C 0,0 km/h (0 Bft)
19.12.2013 15:35 3,7 C 60 % 1014,8 hPa 0,0 l/m 0,3 km/h (0 Bft) O-NO 67 -3,3 C 4,5 C 0,0 km/h (0 Bft)
19.12.2013 15:40 3,9 C 61 % 1014,9 hPa 0,0 l/m 0,8 km/h (0 Bft) O-NO 67 -2,9 C 4,2 C 1,8 km/h (1 Bft)
19.12.2013 15:44 3,8 C 61 % 1014,9 hPa 0,0 l/m 1,0 km/h (0 Bft) O-NO 67 -3,0 C 4,2 C 0,0 km/h (0 Bft)
19.12.2013 15:45 3,8 C 61 % 1014,9 hPa 0,0 l/m 1,0 km/h (0 Bft) O-NO 67 -3,0 C 4,2 C 0,0 km/h (0 Bft)
19.12.2013 15:50 4,1 C 61 % 1014,9 hPa 0,0 l/m 1,6 km/h (1 Bft) O-NO 67 -2,7 C 4,2 C 3,1 km/h (1 Bft)
19.12.2013 15:55 4,3 C 60 % 1014,9 hPa 0,0 l/m 1,8 km/h (1 Bft) O-NO 67 -2,8 C 4,2 C 0,0 km/h (0 Bft)
19.12.2013 16:00 4,1 C 59 % 1014,9 hPa 0,0 l/m 1,0 km/h (0 Bft) SO 135 -3,2 C 4,2 C 3,1 km/h (1 Bft)
19.12.2013 16:05 3,4 C 62 % 1014,9 hPa 0,0 l/m 0,6 km/h (0 Bft) S-SO 157 -3,2 C 4,2 C 0,0 km/h (0 Bft)
19.12.2013 16:10 2,7 C 67 % 1014,9 hPa 0,0 l/m 0,3 km/h (0 Bft) S-SO 157 -2,8 C 3,7 C 0,0 km/h (0 Bft)
19.12.2013 16:15 3,0 C 66 % 1014,9 hPa 0,0 l/m 0,5 km/h (0 Bft) SO 135 -2,7 C 3,4 C 0,0 km/h (0 Bft)
19.12.2013 16:20 3,9 C 63 % 1014,8 hPa 0,0 l/m 1,8 km/h (1 Bft) O-NO 67 -2,5 C 3,4 C 4,7 km/h (1 Bft)
19.12.2013 16:25 4,0 C 62 % 1014,8 hPa 0,0 l/m 1,9 km/h (1 Bft) O-NO 67 -2,6 C 3,5 C 0,0 km/h (0 Bft)
19.12.2013 16:30 3,1 C 63 % 1014,8 hPa 0,0 l/m 1,0 km/h (0 Bft) O-NO 67 -3,2 C 3,4 C 0,0 km/h (0 Bft)
19.12.2013 16:35 3,1 C 64 % 1014,8 hPa 0,0 l/m 0,2 km/h (0 Bft) O-NO 67 -3,0 C 3,3 C 0,0 km/h (0 Bft)
19.12.2013 16:40 2,4 C 66 % 1014,6 hPa 0,0 l/m 0,2 km/h (0 Bft) O 90 -3,3 C 3,0 C 0,0 km/h (0 Bft)
19.12.2013 16:45 2,1 C 67 % 1014,6 hPa 0,0 l/m 0,0 km/h (0 Bft) O 90 -3,4 C 2,7 C 0,0 km/h (0 Bft)
19.12.2013 16:50 2,1 C 68 % 1014,6 hPa 0,0 l/m 0,2 km/h (0 Bft) O-SO 112 -3,2 C 2,6 C 4,8 km/h (1 Bft)
19.12.2013 16:55 2,9 C 68 % 1014,6 hPa 0,0 l/m 0,5 km/h (0 Bft) O 90 -2,4 C 2,6 C 2,4 km/h (1 Bft)
19.12.2013 17:00 3,5 C 63 % 1014,4 hPa 0,0 l/m 4,3 km/h (1 Bft) O-NO 67 -2,9 C 2,1 C 0,0 km/h (0 Bft)
19.12.2013 17:05 2,6 C 66 % 1014,4 hPa 0,0 l/m 3,4 km/h (1 Bft) O 90 -3,1 C 2,7 C 0,0 km/h (0 Bft)
19.12.2013 17:10 2,0 C 67 % 1014,4 hPa 0,0 l/m 0,0 km/h (0 Bft) O 90 -3,5 C 2,7 C 0,0 km/h (0 Bft)
19.12.2013 17:15 1,8 C 69 % 1014,4 hPa 0,0 l/m 0,0 km/h (0 Bft) O-NO 67 -3,3 C 2,6 C 0,0 km/h (0 Bft)
19.12.2013 17:20 1,9 C 71 % 1014,4 hPa 0,0 l/m 0,0 km/h (0 Bft) NO 45 -2,8 C 2,3 C 0,0 km/h (0 Bft)
19.12.2013 17:25 1,8 C 71 % 1014,4 hPa 0,0 l/m 0,0 km/h (0 Bft) O-SO 112 -2,9 C 2,2 C 0,0 km/h (0 Bft)
19.12.2013 17:30 1,8 C 72 % 1014,4 hPa 0,0 l/m 0,6 km/h (0 Bft) O 90 -2,7 C 2,1 C 3,1 km/h (1 Bft)
19.12.2013 17:35 2,0 C 72 % 1014,4 hPa 0,0 l/m 0,6 km/h (0 Bft) O 90 -2,5 C 2,1 C 0,0 km/h (0 Bft)
19.12.2013 17:40 2,0 C 72 % 1014,3 hPa 0,0 l/m 0,6 km/h (0 Bft) O-SO 112 -2,5 C 2,3 C 1,9 km/h (1 Bft)
19.12.2013 17:45 2,0 C 72 % 1014,3 hPa 0,0 l/m 0,5 km/h (0 Bft) O-NO 67 -2,5 C 2,4 C 0,0 km/h (0 Bft)
19.12.2013 17:50 1,7 C 73 % 1014,3 hPa 0,0 l/m 0,0 km/h (0 Bft) O-SO 112 -2,6 C 2,3 C 0,0 km/h (0 Bft)
19.12.2013 17:55 1,7 C 73 % 1014,3 hPa 0,0 l/m 0,0 km/h (0 Bft) O-NO 67 -2,6 C 2,2 C 0,0 km/h (0 Bft)
19.12.2013 18:00 2,3 C 73 % 1014,1 hPa 0,0 l/m 0,6 km/h (0 Bft) O-SO 112 -2,0 C 2,3 C 0,0 km/h (0 Bft)
19.12.2013 18:05 1,9 C 73 % 1014,1 hPa 0,0 l/m 0,6 km/h (0 Bft) NO 45 -2,4 C 2,4 C 0,0 km/h (0 Bft)
19.12.2013 18:10 2,0 C 73 % 1014,1 hPa 0,0 l/m 0,0 km/h (0 Bft) O 90 -2,3 C 2,3 C 0,0 km/h (0 Bft)
19.12.2013 18:15 1,8 C 73 % 1014,1 hPa 0,0 l/m 0,0 km/h (0 Bft) O 90 -2,5 C 2,3 C 0,0 km/h (0 Bft)
19.12.2013 18:20 2,0 C 74 % 1014,1 hPa 0,0 l/m 0,0 km/h (0 Bft) O 90 -2,1 C 2,3 C 0,0 km/h (0 Bft)
19.12.2013 18:25 1,8 C 74 % 1014,1 hPa 0,0 l/m 0,3 km/h (0 Bft) O-SO 112 -2,3 C 2,4 C 0,0 km/h (0 Bft)
19.12.2013 18:30 1,7 C 74 % 1014,1 hPa 0,0 l/m 0,3 km/h (0 Bft) O-SO 112 -2,4 C 2,2 C 0,0 km/h (0 Bft)
19.12.2013 18:35 2,0 C 75 % 1014,1 hPa 0,0 l/m 0,0 km/h (0 Bft) O-SO 112 -2,0 C 2,2 C 0,0 km/h (0 Bft)
19.12.2013 18:40 1,7 C 74 % 1014,0 hPa 0,0 l/m 0,0 km/h (0 Bft) O-SO 112 -2,4 C 2,2 C 0,0 km/h (0 Bft)
19.12.2013 18:45 1,6 C 75 % 1014,0 hPa 0,0 l/m 0,0 km/h (0 Bft) O-SO 112 -2,3 C 2,1 C 0,0 km/h (0 Bft)
19.12.2013 18:50 1,6 C 75 % 1014,0 hPa 0,0 l/m 0,2 km/h (0 Bft) O-SO 112 -2,3 C 2,1 C 1,9 km/h (1 Bft)
19.12.2013 18:55 1,5 C 75 % 1014,0 hPa 0,0 l/m 0,2 km/h (0 Bft) O-SO 112 -2,4 C 2,0 C 0,0 km/h (0 Bft)
19.12.2013 19:00 1,5 C 75 % 1013,9 hPa 0,0 l/m 0,3 km/h (0 Bft) O 90 -2,4 C 1,8 C 2,9 km/h (1 Bft)
19.12.2013 19:05 1,7 C 76 % 1013,9 hPa 0,0 l/m 1,8 km/h (1 Bft) NO 45 -2,1 C 1,8 C 4,8 km/h (1 Bft)
19.12.2013 19:10 2,8 C 74 % 1013,9 hPa 0,0 l/m 4,7 km/h (1 Bft) O 90 -1,4 C 1,1 C 4,7 km/h (1 Bft)
19.12.2013 19:15 2,9 C 73 % 1013,9 hPa 0,0 l/m 4,0 km/h (1 Bft) SO 135 -1,5 C 1,7 C 2,6 km/h (1 Bft)
19.12.2013 19:20 1,6 C 73 % 1013,8 hPa 0,0 l/m 1,4 km/h (1 Bft) SO 135 -2,7 C 2,1 C 0,0 km/h (0 Bft)
19.12.2013 19:25 1,2 C 75 % 1013,8 hPa 0,0 l/m 0,6 km/h (0 Bft) N-NO 22 -2,7 C 1,8 C 0,0 km/h (0 Bft)
19.12.2013 19:30 1,1 C 75 % 1013,8 hPa 0,0 l/m 0,2 km/h (0 Bft) N-NO 22 -2,8 C 1,4 C 0,0 km/h (0 Bft)
19.12.2013 19:35 1,5 C 75 % 1013,8 hPa 0,0 l/m 0,6 km/h (0 Bft) NO 45 -2,4 C 1,3 C 2,3 km/h (1 Bft)
19.12.2013 19:40 1,9 C 76 % 1014,1 hPa 0,0 l/m 0,8 km/h (0 Bft) NO 45 -1,9 C 1,5 C 0,0 km/h (0 Bft)
19.12.2013 19:45 1,5 C 75 % 1014,1 hPa 0,0 l/m 0,3 km/h (0 Bft) NO 45 -2,4 C 1,5 C 0,0 km/h (0 Bft)
19.12.2013 19:50 1,3 C 75 % 1014,1 hPa 0,0 l/m 0,0 km/h (0 Bft) NO 45 -2,6 C 1,5 C 0,0 km/h (0 Bft)
19.12.2013 19:55 1,3 C 76 % 1014,1 hPa 0,0 l/m 0,0 km/h (0 Bft) NO 45 -2,5 C 1,5 C 0,0 km/h (0 Bft)
19.12.2013 20:00 1,2 C 76 % 1013,9 hPa 0,0 l/m 0,0 km/h (0 Bft) NO 45 -2,5 C 1,6 C 0,0 km/h (0 Bft)
19.12.2013 20:05 1,3 C 76 % 1013,9 hPa 0,0 l/m 0,0 km/h (0 Bft) NO 45 -2,5 C 1,7 C 0,0 km/h (0 Bft)
19.12.2013 20:10 1,3 C 77 % 1013,9 hPa 0,0 l/m 0,0 km/h (0 Bft) NO 45 -2,3 C 1,8 C 0,0 km/h (0 Bft)
19.12.2013 20:15 1,3 C 77 % 1013,9 hPa 0,0 l/m 0,0 km/h (0 Bft) NO 45 -2,3 C 1,8 C 0,0 km/h (0 Bft)
19.12.2013 20:20 1,3 C 77 % 1014,3 hPa 0,0 l/m 0,0 km/h (0 Bft) NO 45 -2,3 C 1,9 C 0,0 km/h (0 Bft)
19.12.2013 20:25 1,2 C 78 % 1014,3 hPa 0,0 l/m 0,0 km/h (0 Bft) NO 45 -2,2 C 1,9 C 0,0 km/h (0 Bft)
19.12.2013 20:30 1,2 C 78 % 1014,3 hPa 0,0 l/m 0,0 km/h (0 Bft) NO 45 -2,2 C 1,8 C 0,0 km/h (0 Bft)
19.12.2013 20:35 1,2 C 78 % 1014,3 hPa 0,0 l/m 0,6 km/h (0 Bft) N-NO 22 -2,2 C 1,8 C 3,7 km/h (1 Bft)
19.12.2013 20:40 1,3 C 79 % 1014,2 hPa 0,0 l/m 1,8 km/h (1 Bft) N-NO 22 -1,9 C 1,8 C 0,0 km/h (0 Bft)
19.12.2013 20:43 1,3 C 78 % 1014,2 hPa 0,0 l/m 1,6 km/h (1 Bft) NO 45 -2,1 C 1,8 C 0,0 km/h (0 Bft)
19.12.2013 20:45 1,3 C 78 % 1014,2 hPa 0,0 l/m 1,6 km/h (1 Bft) NO 45 -2,1 C 1,8 C 0,0 km/h (0 Bft)
19.12.2013 20:50 1,4 C 78 % 1014,2 hPa 0,0 l/m 0,5 km/h (0 Bft) O 90 -2,0 C 1,8 C 0,0 km/h (0 Bft)
19.12.2013 20:55 1,7 C 78 % 1014,2 hPa 0,0 l/m 1,3 km/h (1 Bft) NO 45 -1,7 C 1,8 C 2,6 km/h (1 Bft)
19.12.2013 21:00 1,6 C 78 % 1014,5 hPa 0,0 l/m 2,1 km/h (1 Bft) S 180 -1,8 C 2,0 C 2,7 km/h (1 Bft)
19.12.2013 21:05 1,6 C 78 % 1014,5 hPa 0,0 l/m 1,8 km/h (1 Bft) S-SO 157 -1,8 C 1,9 C 3,1 km/h (1 Bft)
19.12.2013 21:10 1,4 C 78 % 1014,5 hPa 0,0 l/m 0,6 km/h (0 Bft) SO 135 -2,0 C 1,9 C 0,0 km/h (0 Bft)
19.12.2013 21:15 1,5 C 78 % 1014,5 hPa 0,0 l/m 0,3 km/h (0 Bft) SO 135 -1,9 C 1,8 C 0,0 km/h (0 Bft)
19.12.2013 21:20 1,4 C 78 % 1014,3 hPa 0,0 l/m 0,0 km/h (0 Bft) S-SO 157 -2,0 C 1,8 C 0,0 km/h (0 Bft)
19.12.2013 21:25 1,3 C 78 % 1014,3 hPa 0,0 l/m 0,0 km/h (0 Bft) SO 135 -2,1 C 1,7 C 2,1 km/h (1 Bft)
19.12.2013 21:30 1,2 C 78 % 1014,3 hPa 0,0 l/m 0,2 km/h (0 Bft) SO 135 -2,2 C 1,5 C 0,0 km/h (0 Bft)
19.12.2013 21:35 1,2 C 78 % 1014,3 hPa 0,0 l/m 0,3 km/h (0 Bft) SO 135 -2,2 C 1,4 C 1,8 km/h (1 Bft)
19.12.2013 21:40 1,3 C 78 % 1014,4 hPa 0,0 l/m 0,2 km/h (0 Bft) SO 135 -2,1 C 1,3 C 0,0 km/h (0 Bft)
19.12.2013 21:45 1,1 C 78 % 1014,4 hPa 0,0 l/m 0,2 km/h (0 Bft) SO 135 -2,3 C 1,1 C 0,0 km/h (0 Bft)
19.12.2013 21:50 1,1 C 78 % 1014,4 hPa 0,0 l/m 0,0 km/h (0 Bft) SO 135 -2,3 C 1,0 C 0,0 km/h (0 Bft)
19.12.2013 21:55 1,0 C 79 % 1014,4 hPa 0,0 l/m 0,0 km/h (0 Bft) SO 135 -2,2 C 1,0 C 0,0 km/h (0 Bft)
19.12.2013 22:00 1,0 C 79 % 1014,4 hPa 0,0 l/m 0,0 km/h (0 Bft) S-SO 157 -2,2 C 1,0 C 0,0 km/h (0 Bft)
19.12.2013 22:05 0,9 C 79 % 1014,4 hPa 0,0 l/m 0,0 km/h (0 Bft) S-SO 157 -2,3 C 1,0 C 0,0 km/h (0 Bft)
19.12.2013 22:10 1,0 C 79 % 1014,4 hPa 0,0 l/m 0,0 km/h (0 Bft) S-SO 157 -2,2 C 1,0 C 0,0 km/h (0 Bft)
19.12.2013 22:15 0,7 C 79 % 1014,4 hPa 0,0 l/m 0,0 km/h (0 Bft) S 180 -2,5 C 1,0 C 0,0 km/h (0 Bft)
19.12.2013 22:20 0,8 C 79 % 1014,5 hPa 0,0 l/m 0,2 km/h (0 Bft) O-SO 112 -2,4 C 0,9 C 0,0 km/h (0 Bft)
19.12.2013 22:25 0,9 C 80 % 1014,5 hPa 0,0 l/m 0,2 km/h (0 Bft) O-SO 112 -2,2 C 1,0 C 0,0 km/h (0 Bft)
19.12.2013 22:30 1,2 C 80 % 1014,5 hPa 0,0 l/m 0,0 km/h (0 Bft) O 90 -1,9 C 1,4 C 2,1 km/h (1 Bft)
19.12.2013 22:35 1,3 C 80 % 1014,5 hPa 0,0 l/m 0,0 km/h (0 Bft) SO 135 -1,8 C 1,6 C 0,0 km/h (0 Bft)
19.12.2013 22:40 1,1 C 80 % 1014,8 hPa 0,0 l/m 1,9 km/h (1 Bft) S 180 -2,0 C 1,6 C 2,7 km/h (1 Bft)
19.12.2013 22:45 1,1 C 80 % 1014,8 hPa 0,0 l/m 2,6 km/h (1 Bft) SO 135 -2,0 C 1,4 C 0,0 km/h (0 Bft)
19.12.2013 22:50 1,4 C 80 % 1014,8 hPa 0,0 l/m 2,9 km/h (1 Bft) S 180 -1,7 C 1,4 C 5,8 km/h (2 Bft)
19.12.2013 22:55 1,6 C 79 % 1014,8 hPa 0,0 l/m 3,1 km/h (1 Bft) S 180 -1,6 C 1,4 C 1,6 km/h (1 Bft)
19.12.2013 23:00 2,5 C 78 % 1015,6 hPa 0,0 l/m 4,2 km/h (1 Bft) S-SO 157 -0,9 C 1,6 C 6,4 km/h (2 Bft)
19.12.2013 23:05 2,8 C 76 % 1015,6 hPa 0,0 l/m 4,5 km/h (1 Bft) S-SO 157 -1,0 C 1,9 C 7,6 km/h (2 Bft)
19.12.2013 23:10 3,1 C 70 % 1015,6 hPa 0,0 l/m 5,5 km/h (1 Bft) SO 135 -1,8 C 2,1 C 5,3 km/h (1 Bft)
19.12.2013 23:15 3,2 C 69 % 1015,6 hPa 0,0 l/m 5,6 km/h (1 Bft) W 270 -1,9 C 2,1 C 6,8 km/h (2 Bft)
19.12.2013 23:20 3,0 C 68 % 1015,9 hPa 0,0 l/m 4,3 km/h (1 Bft) O-SO 112 -2,3 C 2,7 C 3,9 km/h (1 Bft)
19.12.2013 23:25 2,9 C 69 % 1015,9 hPa 0,0 l/m 3,7 km/h (1 Bft) SO 135 -2,2 C 3,1 C 4,5 km/h (1 Bft)
19.12.2013 23:30 3,2 C 67 % 1015,9 hPa 0,0 l/m 4,3 km/h (1 Bft) O-SO 112 -2,3 C 2,8 C 6,6 km/h (2 Bft)
19.12.2013 23:35 3,3 C 67 % 1015,9 hPa 0,0 l/m 5,0 km/h (1 Bft) O-SO 112 -2,2 C 2,7 C 5,0 km/h (1 Bft)
19.12.2013 23:40 3,4 C 66 % 1015,9 hPa 0,0 l/m 5,1 km/h (1 Bft) S 180 -2,3 C 2,8 C 7,4 km/h (2 Bft)
19.12.2013 23:45 3,2 C 66 % 1015,9 hPa 0,0 l/m 4,2 km/h (1 Bft) S-SW 202 -2,5 C 3,3 C 3,4 km/h (1 Bft)
19.12.2013 23:50 2,7 C 68 % 1015,9 hPa 0,0 l/m 3,4 km/h (1 Bft) S 180 -2,6 C 3,4 C 3,5 km/h (1 Bft)
19.12.2013 23:55 2,6 C 68 % 1015,9 hPa 0,0 l/m 3,7 km/h (1 Bft) S-SO 157 -2,7 C 3,0 C 6,0 km/h (2 Bft)
_ Min-Zeit 03:30 14:20 07:35 - 22:35 - - 01:30 01:30 22:45
Minimum _ -6,1 C 50 % 1012,7 hPa - 0,0 km/h (0 Bft) - - -8,8 C -5,8 C 0,0 km/h (0 Bft)
_ Max-Zeit 14:15 04:25 00:15 23:55 11:30 - - 23:00 13:40 11:30
Maximum _ 6,7 C 83 % 1017,6 hPa 0,0 l/m 6,1 km/h
O-SO (2 Bft)
- - -0,9 C 7,8 C 11,3 km/h
O-SO (2 Bft)
Durchschnitt _ -0,1 C 73 % 1014,6 hPa #0,0 l/m 0,7 km/h (0 Bft) O-SO - -4,4 C 0,2 C 1,0 km/h (0 Bft)